This demonstration page uses our WeatherBlox Daily Observations layout. Learn more.

Left ArrowRight Arrow

39.29038, -76.61219

Hourly Observations for May 13, 2017

Temp ( °F °C ) Dew Point ( °F °C ) Humidity (%) Winds ( mph kmh ) Pressure ( in mb ) Visibility ( mi km ) Precip ( " mm )
12:54 am 00:54 undefined 51 10.6 49 9.4 92 92 undefined N/A 29.94 1014 N/A 0.04 1.02
1:54 am 01:54 undefined 50 10 49 9.4 96 96 undefined N/A 29.92 1013 N/A 0.07 1.78
2:54 am 02:54 undefined 50 10 49 9.4 96 96 undefined N/A 29.89 1012 N/A 0.11 2.79
3:54 am 03:54 undefined 50 10 49 9.4 96 96 undefined N/A 29.88 1012 N/A 0.13 3.30
4:54 am 04:54 undefined 50 10 49 9.4 96 96 undefined N/A 29.85 1011 N/A 0.17 4.32
5:54 am 05:54 undefined 50 10 49 9.4 96 96 undefined N/A 29.85 1011 N/A 0.16 4.06
6:54 am 06:54 undefined 51 10.6 49 9.4 92 92 undefined N/A 29.85 1011 N/A 0.17 4.32
7:54 am 07:54 undefined 51 10.6 48 8.9 89 89 undefined N/A 29.84 1011 N/A 0.03 0.76
8:54 am 08:54 undefined 52 11.1 49 9.4 89 89 undefined N/A 29.84 1010 N/A N/A
9:54 am 09:54 undefined 53 11.7 49 9.4 86 86 undefined N/A 29.85 1011 N/A N/A
10:54 am 10:54 undefined 55 12.8 50 10 83 83 undefined N/A 29.84 1011 N/A N/A
11:54 am 11:54 undefined 57 13.9 50 10 78 78 undefined N/A 29.83 1010 N/A N/A
12:54 pm 12:54 undefined 58 14.4 50 10 75 75 undefined N/A 29.81 1009 N/A N/A
1:54 pm 13:54 undefined 56 13.3 52 11.1 87 87 undefined N/A 29.79 1009 N/A N/A
2:54 pm 14:54 undefined 57 13.9 53 11.7 87 87 undefined N/A 29.78 1009 N/A N/A
3:54 pm 15:54 undefined 58 14.4 51 10.6 78 78 undefined N/A 29.79 1009 N/A N/A
4:54 pm 16:54 undefined 58 14.4 51 10.6 78 78 undefined N/A 29.79 1009 N/A N/A
5:54 pm 17:54 undefined 58 14.4 50 10 75 75 undefined N/A 29.80 1009 N/A N/A
6:54 pm 18:54 undefined 57 13.9 51 10.6 81 81 undefined N/A 29.79 1009 N/A N/A
7:54 pm 19:54 undefined 56 13.3 52 11.1 87 87 undefined N/A 29.79 1009 N/A N/A
8:54 pm 20:54 undefined 56 13.3 51 10.6 84 84 undefined N/A 29.81 1010 N/A N/A
9:54 pm 21:54 undefined 56 13.3 51 10.6 84 84 undefined N/A 29.82 1010 N/A N/A
10:54 pm 22:54 undefined 56 13.3 50 10 81 81 undefined N/A 29.83 1010 N/A N/A
11:54 pm 23:54 undefined 55 12.8 50 10 83 83 undefined N/A 29.82 1010 N/A N/A

Powered by AerisWeather